SCP
0 0 0 0 0 0 0 0 0 0 -0 0 0 0 0 0 0 0 0 0 0 0 0 0 0 0 0 0 0 0 0 0 0 0 0 0 0 0 0 0 0 0 0
0 0 0 0 0 0 0 0 0 0 -0 0 0 0 0 0 0 0 0 0 0 0 0 0 0 0 0 0 0 0 0 0 0 0 0 0 0 0 0 0 0 0 0
0 0 0 0 0 0 0 0 0 0 0 1 0 0 0 0 0 0 0 0 0 0 0 0 0 0 0 0 0 0 0 0 0 0 0 0 0 0 0 0 0 0 0
0 0 0 0 0 0 0 0 0 0 0 0 0 0 0 0 0 0 0 0 0 0 0 0 0 0 0 0 0 0 0 0 0 0 0 0 0 0 0 0 0 0 0
0 0 0 0 0 0 0 0 0 0 0 1 0 0 0 0 0 0 0 0 0 0 0 0 0 0 0 0 0 0 0 0 0 0 0 0 0 0 0 0 0 0 0
0 0 0 0 0 0 0 0 0 0 0 0 0 0 0 0 0 0 0 0 0 0 0 0 0 0 0 0 0 0 0 0 0 0 0 0 0 0 0 0 0 0 0
0 0 0 0 0 0 0 0 0 0 0 0 0 0 0 0 0 0 0 0 0 0 0 0 0 0 0 0 0 0 0 0 0 0 0 0 0 0 0 0 0 0 0
-0 -0 -0 0 0 0 0 0 0 0 0 0 0 0 0 0 0 0 0 0 0 0 0 0 0 0 0 0 0 0 0 0 0 0 0 0 0 0 0 0 0 0 0
-0 -0 -0 0 0 0 0 0 0 0 0 0 0 0 0 0 0 0 0 0 0 0 0 0 0 0 0 0 0 0 0 0 0 0 0 0 0 0 0 0 0 0 0
0 0 0 0 0 0 0 0 0 0 0 0 0 0 0 0 0 -0 -0 0 0 0 0 0 0 0 0 0 0 0 0 0 0 0 0 0 0 0 0 0 0 0 0
0 0 0 0 0 0 0 0 0 -0 0 0 0 0 0 0 0 0 0 0 -0 0 0 0 0 0 0 0 0 0 0 0 0 0 0 0 0 0 0 0 0 0 0
0 0 0 0 0 0 0 0 0 0 -0 0 0 0 0 0 -0 -0 -0 -0 -0 0 -0 0 0 0 0 0 0 0 0 0 0 0 0 0 0 0 0 0 0 0 0
0 0 0 0 0 0 0 0 0 -0 -0 -0 -0 0 0 0 0 -0 -0 -0 -0 -0 -0 -0 -0 -0 0 0 0 0 0 0 0 0 0 0 0 0 0 0 0 0 0
0 0 0 0 0 0 0 0 -0 0 0 -0 -0 -0 -0 0 0 -0 0 0 0 0 0 0 0 0 0 0 0 0 0 0 0 0 0 0 -0 0 0 -0 -0 -0 0
0 0 0 0 0 0 0 0 -0 -0 -0 -0 -0 -0 -0 -0 -0 0 0 0 0 0 0 0 0 0 0 0 0 0 0 0 -0 -0 -0 0 0 0 0 0 0 0 0
0 0 0 0 0 -0 -0 -0 -0 -0 -0 -0 -0 -0 -0 -0 -0 -0 0 0 0 0 0 0 0 0 0 0 0 0 0 0 0 0 0 0 0 0 0 0 0 0 0
0 0 0 0 0 0 -0 -0 -0 -0 -0 -0 -0 -0 -0 -0 -0 -0 0 0 0 0 0 0 0 0 0 0 0 0 0 0 0 0 0 0 0 0 0 0 0 0 0
0 0 0 0 0 0 -0 -0 -0 -0 -0 -0 -0 -0 -0 -0 -0 -0 -0 0 0 0 0 0 0 0 0 0 0 0 0 0 0 0 0 0 0 0 0 0 0 0 0
0 0 0 0 0 0 -0 -0 -0 -0 -0 -0 -0 -0 -0 -0 -0 -0 -0 -0 -0 0 0 0 0 0 0 0 0 0 0 0 0 0 0 0 0 0 0 0 0 0 0
0 0 0 0 -0 0 0 -0 -0 -0 -0 0 0 0 0 -0 -0 -0 -0 0 0 0 0 0 0 0 0 0 0 0 0 0 -0 0 0 0 0 0 0 0 0 0 0
0 -0 -0 0 0 -0 0 0 0 0 0 0 0 0 0 0 0 0 0 0 0 0 0 0 0 0 0 0 0 0 0 0 0 0 0 0 0 0 0 0 0 0 0
0 0 -0 0 -0 -0 -0 0 0 -0 -0 -0 0 0 0 0 0 0 0 0 0 0 0 0 0 0 0 0 0 0 0 0 0 0 0 0 0 0 0 0 0 0 0
-0 0 0 0 0 0 0 0 0 -0 0 0 0 0 0 0 0 0 0 0 0 0 0 0 0 0 0 0 0 0 0 0 0 0 0 0 0 0 0 0 0 0 0
0 0 0 0 0 0 0 0 -0 0 0 0 0 0 0 0 0 0 0 0 0 0 0 0 0 0 0 0 0 0 0 0 0 0 0 0 0 0 0 0 0 0 0
0 -0 0 0 0 0 0 0 0 0 0 0 0 0 0 0 0 0 0 0 0 0 0 0 0 0 0 0 0 0 0 0 0 0 0 0 0 0 0 0 0 0 0
0 0 0 0 0 0 0 0 0 0 0 0 0 0 0 0 0 0 0 0 0 0 0 0 0 0 0 0 0 0 0 0 0 0 0 0 0 0 0 0 0 0 0
Wind_Speed_500mb
42 44 42 39 37 34 34 34 33 32 40 36 32 38 32 51 49 56 68 68 58 52 60 60 61 58 61 62 59 59 42 53 48 34 39 43 50 50 52 54 54 59 56
36 34 36 35 35 31 31 33 34 39 44 34 33 37 49 41 48 62 63 61 52 38 52 58 61 59 62 62 59 57 59 53 50 46 39 30 35 52 58 61 65 57 59
35 35 31 31 32 30 29 29 34 35 39 28 26 41 52 55 45 57 65 65 55 48 43 61 60 57 60 60 58 55 55 57 53 53 44 22 27 38 41 43 45 58 59
39 35 33 27 30 27 25 32 25 27 33 38 30 48 49 43 49 48 54 65 61 59 50 49 50 54 51 59 61 55 47 47 54 57 64 63 63 40 37 41 42 48 54
40 35 31 26 26 24 28 26 30 28 32 32 25 48 52 44 44 42 65 79 67 64 58 56 45 45 43 39 46 50 49 45 47 53 62 66 65 67 76 49 36 37 45
14 23 26 26 29 24 23 18 22 24 32 36 32 33 33 37 35 48 60 66 64 72 63 59 51 46 45 43 40 42 46 46 54 56 50 49 40 34 27 28 33 34 41
19 12 11 11 10 10 8 19 27 45 43 45 33 31 29 14 37 52 42 53 63 56 66 57 56 58 57 46 49 53 56 47 55 56 46 23 20 14 20 23 26 27 35
66 50 31 19 17 13 23 31 45 51 43 48 41 29 35 28 24 12 36 45 49 40 44 50 52 47 47 45 47 42 34 18 14 8 6 4 9 12 13 11 11 14 16
67 56 45 37 32 35 43 53 69 74 62 58 53 50 49 41 33 44 36 36 51 40 41 30 25 25 32 24 24 19 21 17 22 26 25 23 19 21 18 19 22 23 14
74 62 58 42 48 53 54 71 81 76 75 76 73 70 67 68 58 62 61 63 65 62 52 43 46 38 38 40 35 36 39 35 37 33 31 31 34 31 32 33 30 26 23
71 66 54 57 57 59 71 92 94 83 88 91 92 95 93 86 74 70 72 70 69 65 54 58 61 52 44 50 48 47 44 43 44 43 41 41 37 35 34 33 32 34 35
71 67 58 59 60 58 83 104 97 93 88 92 95 100 101 95 87 84 78 73 76 76 75 71 71 67 64 60 58 57 52 49 47 47 41 43 40 39 40 40 40 41 42
74 69 68 56 62 81 95 99 98 92 86 88 91 94 97 99 98 93 86 81 82 83 79 77 77 75 70 65 61 58 56 53 51 48 45 43 40 42 45 48 50 52 53
70 69 67 63 67 92 103 98 101 92 93 94 97 101 101 97 96 94 88 86 85 84 79 78 76 74 69 64 60 57 54 51 49 49 52 53 57 58 57 56 55 58 58
67 63 53 60 82 99 93 96 99 98 97 100 101 103 99 95 90 88 86 80 80 79 74 72 72 70 67 62 55 53 52 52 51 51 50 49 50 54 59 61 62 59 58
53 55 60 76 86 81 84 93 97 97 95 97 99 94 92 89 86 83 81 77 77 72 67 68 66 65 62 53 51 50 49 48 47 50 53 54 54 53 55 56 54 56 60
43 52 60 73 72 80 87 94 96 93 94 94 91 88 84 84 80 74 70 70 69 64 66 63 59 59 54 47 45 44 49 52 51 51 53 58 62 63 67 68 64 59 58
49 61 67 69 73 79 84 85 86 88 88 88 85 81 77 77 71 68 70 67 62 60 59 57 52 47 46 45 46 46 47 49 49 53 59 63 66 68 71 71 69 65 63
50 54 64 69 72 77 79 81 82 82 80 80 78 74 70 69 66 68 64 59 54 53 53 48 44 45 46 42 44 47 52 54 54 59 64 67 69 67 65 69 65 64 57
49 57 61 66 71 72 71 75 78 75 76 70 68 63 61 60 60 56 52 50 48 47 44 42 43 42 39 43 50 55 55 59 61 61 62 62 66 70 68 67 68 66 62
49 53 59 64 64 63 63 69 68 69 65 62 59 57 55 53 51 48 47 44 43 41 39 40 39 38 39 47 51 54 58 60 58 62 68 69 70 70 66 57 58 53 59
45 50 54 56 55 54 54 61 62 59 54 52 50 50 49 47 43 40 39 37 37 37 33 32 32 37 45 47 47 52 57 60 63 66 66 67 68 64 59 56 50 52 60
44 47 49 51 52 50 47 51 55 49 46 44 44 42 39 36 34 31 32 31 30 31 29 25 31 37 38 39 44 51 56 60 61 60 59 60 59 56 52 50 52 53 53
43 44 44 46 47 45 44 46 47 43 39 40 40 38 34 31 31 31 29 27 24 24 28 30 30 27 30 42 50 52 53 53 55 57 57 58 55 53 53 52 51 51 51
44 43 42 42 43 42 41 41 39 34 31 32 34 32 30 29 27 23 20 21 27 31 30 30 29 31 33 37 42 50 56 58 57 55 53 52 51 50 49 48 48 47 50
42 41 41 39 39 39 38 37 33 29 27 28 28 27 25 21 18 15 16 18 20 21 20 18 21 25 32 37 41 45 46 46 44 46 48 48 49 51 52 53 52 49 53
Wind_Direction_500mb
272 261 267 272 268 266 267 273 276 262 228 226 262 259 247 225 226 213 200 203 202 203 221 225 228 225 226 229 224 223 225 236 232 233 247 252 254 256 256 260 268 271 275
314 272 267 269 266 263 261 265 276 265 230 215 261 265 235 235 235 238 238 207 210 211 222 229 230 230 230 233 234 228 231 236 241 242 248 264 279 270 267 268 266 269 269
301 289 281 272 264 258 255 266 270 257 227 225 255 244 231 228 229 204 206 236 218 223 227 233 232 234 234 232 238 236 238 238 246 252 248 260 257 274 271 271 266 263 264
295 278 271 265 258 253 254 262 250 235 223 215 249 242 219 212 218 221 223 238 231 219 227 239 239 241 242 239 240 245 244 247 251 255 252 255 260 267 275 267 259 258 254
280 270 266 259 250 248 252 256 223 240 213 213 215 217 212 211 233 239 232 229 215 221 213 241 237 237 241 243 238 247 250 250 253 256 266 267 260 266 271 272 261 258 252
283 272 268 256 241 235 236 238 236 223 190 185 183 192 209 210 219 233 227 229 232 223 224 235 237 242 250 246 242 239 246 255 257 255 252 255 256 251 278 293 291 295 287
12 328 294 251 237 257 272 198 200 136 136 167 151 108 95 167 204 204 202 204 196 210 207 219 224 222 226 231 239 239 243 254 249 263 252 256 274 290 283 281 295 297 293
19 25 30 52 112 142 155 164 134 139 148 140 138 132 114 88 108 116 192 168 174 180 188 191 209 215 212 218 217 220 218 187 190 157 160 23 29 27 1 355 335 323 319
14 29 46 74 104 120 127 129 120 115 111 115 116 112 109 109 117 127 136 126 116 133 136 145 139 152 124 117 109 106 85 68 83 76 78 77 68 57 51 33 23 19 351
14 29 43 77 96 103 123 114 112 113 111 112 110 105 102 102 100 108 110 108 107 108 113 108 110 98 105 99 100 93 101 100 90 80 70 64 56 47 40 34 30 20 7
11 27 45 71 90 98 100 106 111 117 110 110 114 113 110 106 109 107 108 106 106 101 101 108 107 107 105 98 98 96 88 81 78 73 65 64 57 48 39 28 17 6 355
17 32 50 69 83 79 98 105 108 115 111 112 111 107 107 109 110 110 108 107 104 103 103 100 98 97 92 88 85 85 85 79 72 66 58 52 40 34 25 16 8 0 351
22 37 59 62 71 81 97 102 105 108 108 108 106 105 103 103 103 103 102 100 98 96 95 94 91 89 86 83 80 76 71 65 58 52 45 39 29 24 16 7 1 355 350
30 37 48 57 75 87 97 100 104 107 107 106 104 101 99 100 100 102 102 100 99 97 93 90 89 85 80 75 71 66 62 56 49 42 34 26 20 14 6 360 355 349 343
35 46 45 56 79 90 93 98 102 102 104 102 100 98 100 100 101 100 96 97 94 91 91 90 86 81 75 68 63 57 52 45 39 34 27 21 14 7 1 354 349 343 338
48 43 60 69 83 88 90 98 100 100 100 98 97 100 101 101 99 95 97 96 92 91 89 84 81 77 70 61 54 48 43 39 33 28 21 13 6 0 355 349 347 342 338
60 61 66 78 78 89 98 98 100 101 99 98 99 98 98 96 96 97 95 90 89 88 84 80 74 70 64 54 49 43 38 32 26 20 14 8 0 353 350 347 343 337 333
77 83 85 89 93 97 98 100 101 100 100 100 99 99 98 97 98 95 90 90 89 83 78 75 71 67 62 51 43 37 32 26 20 13 9 2 355 350 347 343 338 331 329
87 89 95 97 98 99 102 103 101 100 98 97 97 97 96 96 96 91 89 87 85 83 76 72 67 61 54 45 39 32 27 20 16 9 2 357 352 347 343 339 333 330 330
100 102 104 104 105 105 105 103 100 98 95 96 96 97 98 96 91 91 91 87 82 80 74 68 59 52 45 38 32 27 19 15 10 3 356 351 346 343 342 338 333 331 332
104 106 108 105 103 105 106 103 103 99 100 102 102 101 99 96 96 96 91 87 81 75 69 60 54 47 39 35 27 19 15 10 3 356 354 350 345 342 339 337 338 335 328
113 112 110 107 108 109 108 103 100 102 105 105 103 100 97 95 92 89 87 82 75 66 63 56 47 40 35 27 19 14 10 4 359 355 350 345 343 339 339 339 339 339 338
122 119 117 116 114 111 107 107 105 108 108 107 103 97 94 94 94 92 86 79 70 59 55 52 41 35 27 17 11 9 3 359 355 351 346 342 342 342 342 344 343 341 340
133 130 127 124 120 118 116 112 114 116 119 114 109 106 105 100 90 82 77 68 64 53 43 38 33 25 15 10 6 2 357 354 352 351 348 347 348 347 348 347 347 347 345
148 144 141 137 130 126 123 119 118 115 109 103 99 97 91 83 77 75 72 60 45 36 30 24 15 9 6 2 359 357 355 353 352 349 347 350 352 351 350 348 349 348 344
158 156 155 151 143 137 131 125 120 118 115 111 104 97 93 92 89 76 60 49 40 31 22 11 7 4 0 358 356 354 351 348 345 348 353 357 357 352 347 347 349 347 343
Wind_Speed_850mb
42 44 42 39 37 34 34 34 33 32 40 36 32 38 32 51 49 56 68 68 58 52 60 60 61 58 61 62 59 59 42 53 48 34 39 43 50 50 52 54 54 59 56
36 34 36 35 35 31 31 33 34 39 44 34 33 37 49 41 48 62 63 61 52 38 52 58 61 59 62 62 59 57 59 53 50 46 39 30 35 52 58 61 65 57 59
35 35 31 31 32 30 29 29 34 35 39 28 26 41 52 55 45 57 65 65 55 48 43 61 60 57 60 60 58 55 55 57 53 53 44 22 27 38 41 43 45 58 59
39 35 33 27 30 27 25 32 25 27 33 38 30 48 49 43 49 48 54 65 61 59 50 49 50 54 51 59 61 55 47 47 54 57 64 63 63 40 37 41 42 48 54
40 35 31 26 26 24 28 26 30 28 32 32 25 48 52 44 44 42 65 79 67 64 58 56 45 45 43 39 46 50 49 45 47 53 62 66 65 67 76 49 36 37 45
14 23 26 26 29 24 23 18 22 24 32 36 32 33 33 37 35 48 60 66 64 72 63 59 51 46 45 43 40 42 46 46 54 56 50 49 40 34 27 28 33 34 41
19 12 11 11 10 10 8 19 27 45 43 45 33 31 29 14 37 52 42 53 63 56 66 57 56 58 57 46 49 53 56 47 55 56 46 23 20 14 20 23 26 27 35
66 50 31 19 17 13 23 31 45 51 43 48 41 29 35 28 24 12 36 45 49 40 44 50 52 47 47 45 47 42 34 18 14 8 6 4 9 12 13 11 11 14 16
67 56 45 37 32 35 43 53 69 74 62 58 53 50 49 41 33 44 36 36 51 40 41 30 25 25 32 24 24 19 21 17 22 26 25 23 19 21 18 19 22 23 14
74 62 58 42 48 53 54 71 81 76 75 76 73 70 67 68 58 62 61 63 65 62 52 43 46 38 38 40 35 36 39 35 37 33 31 31 34 31 32 33 30 26 23
71 66 54 57 57 59 71 92 94 83 88 91 92 95 93 86 74 70 72 70 69 65 54 58 61 52 44 50 48 47 44 43 44 43 41 41 37 35 34 33 32 34 35
71 67 58 59 60 58 83 104 97 93 88 92 95 100 101 95 87 84 78 73 76 76 75 71 71 67 64 60 58 57 52 49 47 47 41 43 40 39 40 40 40 41 42
74 69 68 56 62 81 95 99 98 92 86 88 91 94 97 99 98 93 86 81 82 83 79 77 77 75 70 65 61 58 56 53 51 48 45 43 40 42 45 48 50 52 53
70 69 67 63 67 92 103 98 101 92 93 94 97 101 101 97 96 94 88 86 85 84 79 78 76 74 69 64 60 57 54 51 49 49 52 53 57 58 57 56 55 58 58
67 63 53 60 82 99 93 96 99 98 97 100 101 103 99 95 90 88 86 80 80 79 74 72 72 70 67 62 55 53 52 52 51 51 50 49 50 54 59 61 62 59 58
53 55 60 76 86 81 84 93 97 97 95 97 99 94 92 89 86 83 81 77 77 72 67 68 66 65 62 53 51 50 49 48 47 50 53 54 54 53 55 56 54 56 60
43 52 60 73 72 80 87 94 96 93 94 94 91 88 84 84 80 74 70 70 69 64 66 63 59 59 54 47 45 44 49 52 51 51 53 58 62 63 67 68 64 59 58
49 61 67 69 73 79 84 85 86 88 88 88 85 81 77 77 71 68 70 67 62 60 59 57 52 47 46 45 46 46 47 49 49 53 59 63 66 68 71 71 69 65 63
50 54 64 69 72 77 79 81 82 82 80 80 78 74 70 69 66 68 64 59 54 53 53 48 44 45 46 42 44 47 52 54 54 59 64 67 69 67 65 69 65 64 57
49 57 61 66 71 72 71 75 78 75 76 70 68 63 61 60 60 56 52 50 48 47 44 42 43 42 39 43 50 55 55 59 61 61 62 62 66 70 68 67 68 66 62
49 53 59 64 64 63 63 69 68 69 65 62 59 57 55 53 51 48 47 44 43 41 39 40 39 38 39 47 51 54 58 60 58 62 68 69 70 70 66 57 58 53 59
45 50 54 56 55 54 54 61 62 59 54 52 50 50 49 47 43 40 39 37 37 37 33 32 32 37 45 47 47 52 57 60 63 66 66 67 68 64 59 56 50 52 60
44 47 49 51 52 50 47 51 55 49 46 44 44 42 39 36 34 31 32 31 30 31 29 25 31 37 38 39 44 51 56 60 61 60 59 60 59 56 52 50 52 53 53
43 44 44 46 47 45 44 46 47 43 39 40 40 38 34 31 31 31 29 27 24 24 28 30 30 27 30 42 50 52 53 53 55 57 57 58 55 53 53 52 51 51 51
44 43 42 42 43 42 41 41 39 34 31 32 34 32 30 29 27 23 20 21 27 31 30 30 29 31 33 37 42 50 56 58 57 55 53 52 51 50 49 48 48 47 50
42 41 41 39 39 39 38 37 33 29 27 28 28 27 25 21 18 15 16 18 20 21 20 18 21 25 32 37 41 45 46 46 44 46 48 48 49 51 52 53 52 49 53
Wind_Direction_850mb
272 261 267 272 268 266 267 273 276 262 228 226 262 259 247 225 226 213 200 203 202 203 221 225 228 225 226 229 224 223 225 236 232 233 247 252 254 256 256 260 268 271 275
314 272 267 269 266 263 261 265 276 265 230 215 261 265 235 235 235 238 238 207 210 211 222 229 230 230 230 233 234 228 231 236 241 242 248 264 279 270 267 268 266 269 269
301 289 281 272 264 258 255 266 270 257 227 225 255 244 231 228 229 204 206 236 218 223 227 233 232 234 234 232 238 236 238 238 246 252 248 260 257 274 271 271 266 263 264
295 278 271 265 258 253 254 262 250 235 223 215 249 242 219 212 218 221 223 238 231 219 227 239 239 241 242 239 240 245 244 247 251 255 252 255 260 267 275 267 259 258 254
280 270 266 259 250 248 252 256 223 240 213 213 215 217 212 211 233 239 232 229 215 221 213 241 237 237 241 243 238 247 250 250 253 256 266 267 260 266 271 272 261 258 252
283 272 268 256 241 235 236 238 236 223 190 185 183 192 209 210 219 233 227 229 232 223 224 235 237 242 250 246 242 239 246 255 257 255 252 255 256 251 278 293 291 295 287
12 328 294 251 237 257 272 198 200 136 136 167 151 108 95 167 204 204 202 204 196 210 207 219 224 222 226 231 239 239 243 254 249 263 252 256 274 290 283 281 295 297 293
19 25 30 52 112 142 155 164 134 139 148 140 138 132 114 88 108 116 192 168 174 180 188 191 209 215 212 218 217 220 218 187 190 157 160 23 29 27 1 355 335 323 319
14 29 46 74 104 120 127 129 120 115 111 115 116 112 109 109 117 127 136 126 116 133 136 145 139 152 124 117 109 106 85 68 83 76 78 77 68 57 51 33 23 19 351
14 29 43 77 96 103 123 114 112 113 111 112 110 105 102 102 100 108 110 108 107 108 113 108 110 98 105 99 100 93 101 100 90 80 70 64 56 47 40 34 30 20 7
11 27 45 71 90 98 100 106 111 117 110 110 114 113 110 106 109 107 108 106 106 101 101 108 107 107 105 98 98 96 88 81 78 73 65 64 57 48 39 28 17 6 355
17 32 50 69 83 79 98 105 108 115 111 112 111 107 107 109 110 110 108 107 104 103 103 100 98 97 92 88 85 85 85 79 72 66 58 52 40 34 25 16 8 0 351
22 37 59 62 71 81 97 102 105 108 108 108 106 105 103 103 103 103 102 100 98 96 95 94 91 89 86 83 80 76 71 65 58 52 45 39 29 24 16 7 1 355 350
30 37 48 57 75 87 97 100 104 107 107 106 104 101 99 100 100 102 102 100 99 97 93 90 89 85 80 75 71 66 62 56 49 42 34 26 20 14 6 360 355 349 343
35 46 45 56 79 90 93 98 102 102 104 102 100 98 100 100 101 100 96 97 94 91 91 90 86 81 75 68 63 57 52 45 39 34 27 21 14 7 1 354 349 343 338
48 43 60 69 83 88 90 98 100 100 100 98 97 100 101 101 99 95 97 96 92 91 89 84 81 77 70 61 54 48 43 39 33 28 21 13 6 0 355 349 347 342 338
60 61 66 78 78 89 98 98 100 101 99 98 99 98 98 96 96 97 95 90 89 88 84 80 74 70 64 54 49 43 38 32 26 20 14 8 0 353 350 347 343 337 333
77 83 85 89 93 97 98 100 101 100 100 100 99 99 98 97 98 95 90 90 89 83 78 75 71 67 62 51 43 37 32 26 20 13 9 2 355 350 347 343 338 331 329
87 89 95 97 98 99 102 103 101 100 98 97 97 97 96 96 96 91 89 87 85 83 76 72 67 61 54 45 39 32 27 20 16 9 2 357 352 347 343 339 333 330 330
100 102 104 104 105 105 105 103 100 98 95 96 96 97 98 96 91 91 91 87 82 80 74 68 59 52 45 38 32 27 19 15 10 3 356 351 346 343 342 338 333 331 332
104 106 108 105 103 105 106 103 103 99 100 102 102 101 99 96 96 96 91 87 81 75 69 60 54 47 39 35 27 19 15 10 3 356 354 350 345 342 339 337 338 335 328
113 112 110 107 108 109 108 103 100 102 105 105 103 100 97 95 92 89 87 82 75 66 63 56 47 40 35 27 19 14 10 4 359 355 350 345 343 339 339 339 339 339 338
122 119 117 116 114 111 107 107 105 108 108 107 103 97 94 94 94 92 86 79 70 59 55 52 41 35 27 17 11 9 3 359 355 351 346 342 342 342 342 344 343 341 340
133 130 127 124 120 118 116 112 114 116 119 114 109 106 105 100 90 82 77 68 64 53 43 38 33 25 15 10 6 2 357 354 352 351 348 347 348 347 348 347 347 347 345
148 144 141 137 130 126 123 119 118 115 109 103 99 97 91 83 77 75 72 60 45 36 30 24 15 9 6 2 359 357 355 353 352 349 347 350 352 351 350 348 349 348 344
158 156 155 151 143 137 131 125 120 118 115 111 104 97 93 92 89 76 60 49 40 31 22 11 7 4 0 358 356 354 351 348 345 348 353 357 357 352 347 347 349 347 343